Wind_Speed
9 9 9 9 9 9 9 9 9 10 11 12 13 15 15 16 16 17 17 16 16 16 17 16 15 15 16 17 17 18 18 19 20 22 22 21 21 21 21 20 19 18 18 17 17 16 16 15 15 16 15 15 16 16 16 17 17 17 17 16 16 16 16 16 16 17 17 17 17 18 18 18 19 20 20 21 21 22 22 21 21 21 20 20 19
9 9 9 9 9 8 8 8 9 9 10 11 12 13 14 15 15 15 16 16 15 15 15 15 15 16 16 17 18 17 17 19 20 21 22 21 21 21 21 21 20 19 19 18 18 17 17 16 16 16 16 16 16 17 17 17 18 18 18 18 17 17 17 17 17 18 18 19 19 19 19 19 19 20 20 21 21 22 22 22 22 22 22 21 21
8 8 8 8 8 8 7 8 9 9 9 10 11 12 13 13 13 13 13 15 15 14 13 14 15 16 17 17 16 15 15 17 19 18 20 21 20 20 20 20 19 19 19 19 19 18 18 17 16 16 16 17 17 17 17 18 18 19 19 19 19 19 18 18 18 19 19 20 20 21 21 21 20 20 20 21 21 22 22 23 23 23 23 22 22
8 8 8 7 7 7 7 8 9 9 9 10 11 11 11 11 10 10 11 12 13 12 12 13 15 16 17 16 15 15 14 14 16 15 17 19 18 17 18 18 19 19 20 19 19 19 18 17 17 17 17 17 17 18 18 18 18 18 19 19 19 19 20 20 20 20 20 21 22 22 22 23 22 22 22 22 22 22 23 23 23 23 23 23 23
7 7 7 6 6 6 7 8 8 8 8 9 9 9 9 9 8 8 9 10 10 10 11 12 13 15 17 15 13 14 13 12 13 13 13 15 15 15 15 17 18 19 19 19 19 19 19 18 17 16 16 16 17 17 18 18 18 18 19 19 20 20 20 20 21 21 22 22 23 23 24 24 24 24 24 24 24 24 23 24 24 24 24 24 24
6 6 6 5 5 5 6 7 7 7 7 7 8 8 8 7 7 8 8 8 8 9 11 11 12 13 14 13 11 12 12 11 11 12 12 13 13 13 14 15 17 17 18 19 19 19 18 18 17 16 16 16 17 17 18 18 18 19 19 20 20 20 21 21 22 22 23 24 24 24 25 25 26 26 26 26 26 26 25 25 25 25 25 24 24
5 5 5 5 4 4 4 5 5 5 6 6 7 7 7 6 7 8 8 7 6 8 10 11 12 12 12 12 12 12 12 11 10 10 12 12 11 11 12 14 15 16 17 17 17 17 17 16 16 16 16 17 17 18 18 18 18 19 19 20 20 21 21 22 22 23 24 25 26 26 26 26 27 27 27 27 27 27 27 27 27 27 26 26 26
5 5 5 5 5 4 4 4 4 4 5 5 5 5 5 5 6 7 8 6 5 6 8 10 11 12 11 12 12 11 11 10 8 8 10 11 10 10 11 13 14 15 15 15 15 15 15 15 15 15 16 16 17 18 18 18 18 19 19 20 20 21 22 22 22 22 23 24 25 27 28 28 29 28 28 28 28 28 28 28 28 28 28 28 28
5 5 5 5 5 5 5 5 5 5 5 5 4 4 4 4 4 6 8 7 5 4 5 7 8 10 11 11 10 9 9 9 8 9 11 11 11 11 10 11 11 12 14 14 14 15 14 14 15 15 16 16 16 17 18 18 18 19 19 20 21 22 22 22 22 22 23 23 24 25 26 28 29 30 30 30 30 29 29 29 29 29 30 30 30
5 5 5 5 5 5 5 5 5 5 5 6 5 5 4 3 4 5 7 7 4 2 4 3 4 7 9 9 9 9 9 7 7 10 12 10 10 11 11 10 11 12 13 13 14 14 14 14 15 15 16 16 16 17 17 18 18 18 19 20 20 21 22 22 22 23 23 23 24 24 25 26 27 28 29 30 30 30 30 30 30 30 30 30 30
4 4 5 5 5 5 5 5 5 5 5 6 5 5 4 3 4 5 6 5 3 3 4 3 3 5 7 7 8 10 9 6 5 8 9 7 8 10 10 11 11 12 12 12 12 13 13 13 14 15 15 16 16 16 17 17 17 17 18 18 19 19 20 21 22 22 23 23 24 25 25 25 26 26 27 28 29 30 31 31 31 30 30 30 31
4 5 4 4 5 5 5 5 5 5 6 6 6 6 5 3 4 5 6 5 3 3 4 4 3 3 5 6 7 8 7 5 4 5 6 5 6 7 8 9 10 10 10 10 10 11 12 12 13 14 14 15 15 15 15 16 16 16 17 17 17 17 18 20 20 20 20 21 23 24 25 25 25 26 27 27 28 29 29 30 30 30 30 30 30
6 6 6 6 6 6 5 5 5 6 6 7 7 7 6 5 5 5 6 5 3 3 2 3 3 3 4 5 5 5 5 5 5 5 5 5 5 5 7 7 7 7 7 8 8 9 11 11 12 13 13 14 14 14 14 15 15 15 15 15 14 15 16 17 18 17 17 18 19 20 22 24 24 25 26 27 27 28 28 29 29 29 29 29 29
7 7 7 7 7 7 6 6 6 6 6 7 8 8 7 6 6 6 6 5 4 3 1 1 3 3 4 4 5 4 4 5 5 5 5 5 5 6 7 6 6 6 7 7 8 9 10 11 12 12 12 12 12 13 13 13 13 13 13 12 12 12 12 13 14 15 14 15 15 16 17 19 21 23 24 25 26 27 27 28 28 29 28 28 28
7 7 7 7 7 7 6 6 6 6 7 8 8 8 7 7 7 7 6 5 5 4 2 1 3 3 3 4 4 5 5 5 5 4 4 5 5 6 6 6 6 7 7 8 8 9 10 11 12 11 11 11 11 11 11 12 12 12 12 12 12 11 11 11 12 12 12 13 13 13 14 15 16 18 19 21 23 24 25 26 28 29 29 28 28
7 8 7 7 7 7 7 7 7 7 7 8 8 8 7 6 6 6 6 6 6 5 2 2 4 4 3 4 5 5 6 6 5 4 4 5 6 5 6 6 7 8 8 9 9 10 11 12 12 10 10 11 11 11 11 11 12 12 13 13 13 13 13 13 12 13 13 13 13 14 14 15 15 15 17 18 19 20 21 23 25 26 27 27 28
7 7 7 7 6 6 7 7 8 8 8 8 8 8 7 5 5 5 5 6 6 5 4 3 4 5 5 5 6 6 6 6 6 6 6 7 7 7 6 6 7 8 8 8 9 10 11 11 11 10 11 11 12 12 12 12 13 14 14 14 15 15 15 14 14 14 14 15 16 16 16 16 16 16 17 17 18 18 19 21 22 23 22 24 25
7 6 6 5 5 5 6 6 7 7 8 9 9 9 9 7 5 4 5 5 5 5 5 5 5 6 6 6 6 7 7 7 8 9 9 10 10 9 7 6 6 7 8 9 10 11 12 12 11 12 12 12 12 12 13 14 15 15 16 16 16 16 16 16 16 16 16 17 18 18 18 18 18 18 18 18 19 19 19 21 22 22 22 22 23
7 6 5 5 5 5 5 6 7 7 8 9 10 11 10 10 9 7 6 6 5 5 5 6 6 6 7 6 6 7 7 8 8 9 10 10 10 9 8 8 8 9 10 11 12 13 12 12 13 13 13 13 14 14 15 16 16 17 17 17 17 17 17 18 18 18 18 19 20 20 20 20 20 21 20 20 21 20 21 22 22 23 23 22 23
8 7 6 5 5 6 7 7 8 9 10 10 10 10 10 10 11 10 9 8 8 7 6 7 7 7 7 7 7 8 8 9 9 9 9 10 10 10 9 9 9 10 11 12 13 13 13 13 14 14 14 15 16 16 16 17 17 17 18 18 18 18 19 19 19 20 20 20 21 21 22 22 22 22 23 23 23 23 22 23 23 23 23 23 23
8 7 6 6 7 8 8 9 10 11 12 12 11 11 10 10 11 11 11 11 11 10 9 9 9 9 9 8 8 8 9 10 11 10 10 10 10 10 10 10 10 11 12 13 14 13 12 13 14 15 15 16 16 17 17 17 17 18 18 19 19 20 20 20 20 21 21 21 22 22 23 23 23 23 24 24 24 24 23 23 23 23 23 23 23
9 9 8 8 8 9 10 11 13 13 13 13 12 12 12 11 11 11 11 12 12 12 12 12 12 12 11 10 9 9 11 12 12 12 11 11 11 10 10 10 11 12 13 14 14 13 12 13 14 15 16 17 17 17 17 17 18 18 19 19 20 20 20 20 21 21 22 22 22 22 22 23 24 24 24 24 24 24 24 23 23 23 23 22 22
11 11 10 9 9 9 9 10 11 12 12 12 12 13 13 12 12 12 12 12 13 13 13 13 13 14 13 13 11 11 12 14 14 13 12 12 12 11 11 11 11 13 14 15 15 14 14 15 15 16 16 17 17 17 18 18 18 18 19 19 19 19 19 20 20 20 21 21 21 21 21 22 22 23 23 23 23 23 23 23 22 22 22 22 22
12 12 11 10 9 9 8 8 8 9 9 10 10 11 11 11 11 11 11 12 12 13 13 13 14 14 15 14 13 13 14 15 14 14 13 13 13 13 12 12 13 14 15 15 16 16 15 16 16 16 16 16 17 16 17 17 17 17 18 18 18 17 18 18 18 18 18 19 19 19 19 19 19 19 19 20 20 20 20 20 20 20 20 20 20
13 12 12 11 9 8 7 7 6 6 7 8 9 9 10 10 10 9 10 11 11 12 13 13 13 14 15 15 14 14 15 15 14 14 14 15 15 14 13 13 14 15 16 17 17 17 17 17 17 16 16 15 15 15 15 15 15 16 15 15 15 15 15 15 15 15 15 15 15 15 15 15 15 15 15 15 15 16 16 17 17 17 17 18 18
13 13 13 12 10 8 7 7 7 6 6 8 9 10 10 10 9 8 8 9 10 11 12 12 13 14 14 15 15 15 15 16 15 15 15 15 15 15 14 15 16 17 18 18 19 19 18 17 16 16 15 14 14 13 13 13 13 14 13 13 13 13 13 13 13 13 13 13 13 13 13 12 12 12 12 12 12 12 12 13 13 13 14 14 15
13 14 13 12 10 9 8 8 7 6 7 8 10 10 10 10 9 9 8 9 9 10 11 11 12 13 14 14 15 14 15 16 15 15 16 16 16 16 16 17 18 19 20 20 20 19 18 17 15 15 14 13 13 13 12 12 12 12 12 12 12 12 12 12 13 13 13 13 13 12 12 11 11 11 11 11 11 11 10 10 11 11 11 11 12
13 13 13 12 10 9 9 9 8 7 7 8 9 9 9 9 9 9 9 10 10 11 11 11 12 12 13 13 14 14 15 15 14 15 17 16 16 16 16 18 19 20 20 19 19 18 17 16 14 14 14 13 13 12 12 12 12 12 12 12 12 12 12 13 13 13 13 13 13 13 13 12 12 12 11 11 11 11 11 11 11 11 11 11 12
13 13 12 11 10 9 10 9 9 8 7 7 8 8 8 8 8 8 9 10 11 11 11 12 12 12 13 13 14 15 16 16 16 17 17 17 17 17 17 19 20 20 18 17 16 16 16 15 14 14 13 13 13 13 13 13 13 13 13 13 13 13 14 14 14 14 14 14 14 14 14 13 13 13 13 13 13 13 13 12 12 12 13 13 13
14 12 12 10 10 10 10 10 10 9 8 7 7 7 7 7 7 7 8 9 9 10 10 11 12 12 13 14 14 15 17 17 17 18 18 18 18 17 17 18 19 17 16 15 14 14 15 15 15 14 14 14 14 14 14 14 14 14 15 15 15 15 15 15 15 15 14 14 14 14 14 14 14 14 14 14 14 14 14 14 14 14 15 15 16
16 14 12 11 10 10 11 11 11 10 9 8 7 6 6 6 7 7 8 8 9 9 10 10 11 12 13 13 14 14 15 16 16 16 16 16 17 17 16 17 17 16 15 15 14 14 15 15 15 15 15 15 15 15 15 15 15 15 16 16 16 16 16 16 16 16 15 15 14 14 14 14 14 14 14 14 14 15 15 15 15 15 15 16 16
16 15 14 12 11 11 12 12 12 11 11 10 8 8 7 6 6 7 8 9 9 10 11 11 11 12 12 13 13 13 13 14 14 14 14 15 15 15 15 15 15 15 15 15 15 15 14 15 15 16 16 16 16 16 16 16 16 16 17 18 17 17 16 16 16 16 15 15 15 15 14 14 14 15 15 15 15 15 15 15 15 15 16 16 17
17 16 15 15 13 13 13 13 13 13 12 11 10 9 8 6 6 7 8 9 9 11 12 12 12 13 13 13 12 12 12 12 13 13 14 14 14 14 14 14 15 15 16 16 16 15 15 16 16 16 17 16 16 17 17 17 17 18 19 19 18 18 18 18 17 17 17 16 16 15 15 15 16 16 16 16 16 16 17 17 18 18 18 19 19
17 16 15 16 16 15 14 13 14 14 13 12 11 10 9 7 7 7 8 9 10 11 12 12 13 13 12 12 12 12 12 13 13 13 13 13 13 14 14 15 16 16 16 16 16 17 17 17 18 18 18 17 17 17 17 18 19 19 20 19 19 19 20 19 19 19 18 18 17 17 17 17 17 17 17 18 19 19 19 20 20 21 21 22 22
16 15 15 16 17 17 16 14 15 15 14 14 12 10 9 8 8 8 8 9 9 10 11 12 12 12 12 11 11 11 12 12 12 12 12 12 12 12 13 13 14 15 15 16 16 17 17 17 18 18 18 18 18 18 18 19 19 20 21 20 20 21 21 21 21 20 20 19 19 19 19 18 18 19 19 20 21 21 21 22 23 24 25 26 27
17 16 16 16 17 18 17 16 16 15 15 14 12 11 9 9 9 9 9 9 10 10 10 11 11 11 10 10 9 9 9 9 9 9 9 10 10 10 11 12 13 14 14 15 15 16 17 17 18 18 18 19 19 20 20 20 21 21 21 22 22 22 22 22 22 21 21 21 21 21 21 21 22 23 23 24 24 24 24 25 26 27 29 30 31
18 18 17 17 17 19 18 17 17 16 15 14 13 12 11 10 10 10 10 10 9 9 9 9 9 9 9 8 8 8 8 8 8 8 8 8 9 10 11 11 12 13 14 14 15 16 17 17 18 18 19 20 20 21 22 22 23 23 23 24 24 24 24 24 23 23 23 23 24 24 24 25 26 27 28 28 28 28 29 29 30 31 33 34 35
19 19 18 18 18 19 19 18 17 17 16 15 15 14 13 13 13 13 12 12 11 11 10 10 10 10 10 9 9 9 10 10 10 11 12 12 13 13 13 13 13 13 13 14 16 17 18 19 19 19 20 21 21 22 22 24 25 25 25 25 25 26 26 26 25 25 25 26 26 27 28 29 29 30 30 31 31 32 33 34 35 36 37 38 39
20 20 19 19 19 20 20 19 18 17 17 17 16 16 15 15 15 15 15 15 14 15 14 14 14 14 14 14 14 14 15 15 15 15 16 17 18 18 18 18 16 15 15 15 15 17 19 20 21 21 22 23 23 23 23 25 26 27 27 27 27 27 27 28 28 29 29 29 30 30 31 31 32 32 33 33 34 35 37 38 39 40 41 42 43
21 20 19 19 20 20 20 19 19 19 19 19 19 18 17 17 16 16 17 17 18 18 18 18 19 19 19 20 20 19 19 20 19 18 18 19 20 20 20 20 20 19 18 17 16 17 19 21 23 24 24 25 25 25 26 27 28 29 29 29 30 30 30 31 31 32 32 33 33 33 34 34 35 35 36 37 38 38 40 41 42 44 45 45 46
21 20 19 19 19 20 20 21 21 22 22 21 21 19 18 18 17 17 18 19 20 20 20 20 21 21 22 23 23 23 23 23 24 23 22 22 22 22 21 21 22 22 23 22 20 19 20 22 23 24 25 25 25 27 28 29 30 30 31 31 32 33 33 34 34 34 34 35 36 36 36 37 37 38 39 40 41 41 42 43 44 46 47 48 49
20 19 19 20 21 22 23 23 24 24 24 24 23 22 22 21 20 20 20 21 21 21 21 20 20 20 21 22 23 23 23 24 26 27 26 25 23 22 21 21 21 22 23 24 24 23 23 24 24 24 25 25 26 27 28 29 30 30 31 32 33 34 35 35 36 36 36 36 37 39 39 40 40 41 41 42 43 44 45 45 46 47 49 50 52
19 19 20 22 23 24 25 25 25 26 26 25 25 25 24 24 23 23 22 22 22 21 21 20 19 18 19 20 22 23 24 26 28 29 28 26 24 24 23 22 22 22 23 25 26 27 27 27 28 28 28 29 29 29 30 31 32 32 33 34 34 35 36 37 37 38 38 39 40 41 41 42 42 43 43 44 46 46 46 47 47 49 51 52 52
19 20 21 23 24 25 25 26 26 26 26 26 26 26 26 26 25 25 24 23 23 22 21 21 20 20 20 21 23 25 26 28 29 30 29 27 27 28 29 28 27 27 27 29 30 30 30 30 31 32 33 33 34 35 35 35 35 35 35 36 36 37 38 38 38 38 38 40 42 43 43 43 44 44 45 46 47 47 48 49 51 52 53 52 53
21 21 21 22 24 25 26 27 27 27 27 27 27 27 27 28 27 27 26 25 24 24 23 24 24 24 24 24 26 28 29 30 30 31 31 31 32 33 33 32 31 31 32 33 33 33 32 32 34 35 36 37 38 39 39 38 38 38 38 38 37 38 39 38 38 38 39 41 43 44 43 43 44 44 46 47 49 49 50 52 53 54 54 54 54
22 22 23 24 25 26 28 29 30 30 30 30 30 31 31 31 31 30 29 28 27 26 26 26 26 27 27 29 31 33 33 32 31 32 33 34 35 36 36 35 35 35 36 36 36 36 36 36 37 40 41 41 42 42 42 42 41 39 38 36 35 36 37 39 40 41 42 42 43 43 44 44 45 46 47 49 51 52 52 53 53 53 54 54 55
25 26 27 27 28 29 30 31 32 33 33 34 34 35 35 34 34 33 33 32 31 30 29 29 29 29 31 32 35 35 34 34 34 34 34 36 37 39 39 38 38 38 38 38 39 39 40 40 42 44 45 44 44 44 44 44 42 40 38 37 36 38 40 42 44 44 43 42 42 44 45 45 46 47 48 49 50 51 52 53 53 54 55 56 56
31 32 32 32 32 32 33 33 34 35 36 37 37 38 39 38 38 38 37 36 35 33 32 32 32 32 33 34 35 35 34 34 35 35 35 37 39 40 40 39 39 40 41 41 42 42 43 44 46 47 47 46 45 44 44 44 44 43 41 40 39 40 41 43 43 43 42 43 44 46 46 46 47 48 48 49 49 51 52 53 54 55 56 57 57
34 35 36 36 37 36 36 36 37 38 39 40 41 42 43 43 43 43 43 41 39 38 37 36 35 35 35 35 35 34 35 36 37 37 39 40 41 41 42 42 43 43 44 44 45 45 45 46 47 46 45 44 43 43 43 44 45 45 43 41 40 40 41 41 42 42 43 45 46 46 46 46 46 47 47 48 49 51 52 53 54 55 55 55 55
37 38 39 39 40 40 40 41 41 41 42 44 45 46 47 48 48 49 48 47 45 43 41 40 39 38 38 38 38 38 39 40 41 43 44 44 43 44 46 47 46 46 45 46 47 47 44 43 44 45 45 45 44 44 43 43 43 42 41 41 41 42 42 42 42 43 43 44 44 44 44 44 45 46 47 48 49 51 52 52 53 54 55 55 55
40 40 41 42 43 43 44 44 45 45 46 48 49 51 51 51 51 52 52 51 49 49 47 44 42 42 42 42 42 42 42 43 45 46 47 46 46 48 49 50 50 48 47 46 48 47 45 44 46 49 50 47 43 42 41 40 40 41 41 42 43 43 43 43 42 41 41 42 42 43 44 45 46 48 50 50 50 50 51 52 54 56 57 57 57
Wind_Direction
226 225 228 232 234 235 238 242 244 244 243 243 244 247 251 249 246 245 244 245 247 251 254 254 252 251 250 245 238 235 235 235 236 235 232 230 229 232 236 239 240 240 242 242 241 241 242 242 242 242 240 239 239 241 244 246 248 249 249 251 252 254 256 257 258 258 259 259 258 257 256 255 254 254 254 254 254 255 255 255 254 255 256 257 258
221 223 226 230 231 232 235 236 238 240 242 245 248 250 250 250 248 246 243 242 243 248 253 252 246 244 245 245 241 239 238 235 235 235 230 229 231 232 235 239 241 243 242 241 240 240 240 241 240 240 240 240 240 240 242 244 246 247 248 249 250 252 253 254 256 257 258 259 259 258 258 257 256 256 256 256 256 256 257 258 258 258 257 257 257
218 219 224 229 233 238 241 241 240 243 247 248 248 249 249 249 250 249 244 239 238 241 244 246 241 236 239 244 244 244 245 237 235 237 232 230 234 237 239 242 244 246 245 244 244 242 241 240 240 239 238 238 238 238 239 242 245 247 248 248 250 251 253 254 254 255 256 258 258 259 259 259 258 258 257 258 258 257 257 258 258 259 259 259 259
227 230 235 238 244 248 248 244 244 251 254 252 251 252 251 251 254 253 245 236 233 233 235 240 240 234 236 242 245 247 246 236 230 232 232 231 233 236 238 241 243 244 244 245 247 246 245 244 244 243 240 238 236 236 238 241 244 246 248 248 249 250 252 253 254 255 256 257 258 258 259 259 259 259 259 259 259 259 259 259 259 258 259 259 259
240 246 251 253 253 252 249 246 248 255 257 259 260 262 262 262 265 260 250 239 230 230 233 238 239 236 234 238 246 249 245 239 231 229 228 226 226 227 229 232 235 237 239 241 244 246 247 248 249 248 246 243 239 238 239 241 244 245 247 247 248 248 249 251 252 253 255 256 257 258 259 259 259 259 260 260 261 261 262 262 262 261 260 259 259
255 256 259 258 253 245 245 247 253 258 262 270 273 277 279 276 275 265 257 248 233 230 231 233 233 231 229 230 238 242 238 234 228 226 225 222 222 225 225 226 228 231 233 236 238 242 245 247 249 248 247 244 241 240 240 241 242 244 245 246 247 248 249 250 250 251 252 253 255 256 257 258 259 260 260 261 261 263 264 264 265 265 265 263 262
257 260 263 265 261 248 246 249 252 255 263 274 279 285 288 285 281 271 266 260 240 229 230 231 225 218 217 222 230 235 230 224 218 221 224 220 221 224 223 223 224 227 230 232 235 238 240 243 245 244 243 242 241 241 242 242 243 244 246 247 248 249 250 250 250 251 252 252 252 253 254 256 257 258 259 259 260 261 263 265 266 267 267 267 266
252 256 265 272 276 275 273 267 262 261 268 277 281 284 286 290 289 279 272 266 261 254 243 232 216 211 215 217 223 229 225 219 216 221 220 215 217 221 222 225 228 231 234 233 234 235 237 240 242 241 241 241 242 243 244 244 245 246 247 248 249 250 251 251 252 252 253 253 253 253 253 254 255 256 257 258 259 260 261 263 265 266 267 268 268
243 242 250 260 269 278 279 278 277 275 277 280 286 287 283 291 289 281 274 271 285 277 236 220 209 208 214 211 210 214 211 208 211 216 213 208 214 222 226 231 236 238 237 236 235 236 237 239 241 241 241 241 242 244 245 245 246 246 247 248 249 251 253 254 254 253 253 254 254 254 254 254 254 254 256 257 258 259 259 261 262 264 265 267 267
232 229 235 243 250 261 265 270 274 272 276 280 286 286 281 279 270 274 278 279 287 236 199 215 225 214 210 206 201 193 191 200 216 221 217 214 221 227 229 229 234 238 237 236 235 236 238 239 242 242 242 243 243 244 245 246 247 248 249 249 249 250 253 255 255 255 254 254 254 255 255 255 255 254 255 256 257 258 259 259 260 261 263 265 266
238 238 239 243 247 251 257 265 269 267 270 273 274 273 270 263 253 262 277 286 283 226 228 259 264 230 213 204 194 192 200 218 237 228 219 227 233 228 230 230 233 237 236 236 234 233 235 238 240 238 239 242 243 245 245 246 247 248 250 250 250 251 253 255 256 257 258 257 257 256 256 256 256 256 256 256 257 258 259 259 260 261 262 264 266
266 264 261 257 256 255 257 257 258 257 257 258 258 260 258 245 241 250 268 286 283 239 249 265 262 233 213 202 192 201 225 243 250 230 215 229 236 228 232 230 233 238 238 239 236 233 233 235 236 234 236 239 241 243 243 244 245 246 248 251 252 254 255 256 257 258 260 261 261 260 258 258 258 258 257 258 259 259 260 260 261 262 263 264 266
276 273 268 264 260 255 251 246 246 245 247 250 250 250 244 229 229 239 255 274 275 251 244 254 253 235 216 210 204 213 236 239 240 240 227 231 243 247 244 234 234 237 237 239 235 232 231 231 234 233 233 237 238 240 242 242 242 244 248 251 255 257 256 255 255 256 259 263 265 264 261 259 260 260 259 259 260 261 261 261 261 262 262 263 265
272 268 264 261 259 255 250 244 240 236 237 242 244 243 237 229 228 237 248 256 261 257 229 244 262 253 234 226 221 223 233 230 229 239 242 243 252 260 253 243 242 238 232 230 225 229 231 229 232 232 233 237 239 240 242 241 241 243 245 249 254 256 257 257 255 255 258 263 268 268 266 262 261 262 262 261 261 261 261 261 262 262 262 263 264
264 261 258 257 255 253 248 240 234 230 229 233 238 239 234 231 233 239 247 249 253 257 248 266 268 257 243 232 235 244 251 242 226 223 234 242 248 254 251 244 240 233 228 224 220 226 231 229 230 233 235 238 240 241 242 241 241 242 244 249 254 257 259 261 261 261 260 264 269 272 272 267 265 266 265 264 264 265 263 263 262 261 261 262 264
251 249 247 247 244 240 236 232 229 226 223 225 231 238 235 228 230 238 247 252 257 261 261 265 264 258 242 229 234 245 252 249 236 224 229 237 237 237 240 239 235 231 227 224 220 223 232 233 233 234 234 236 241 245 244 242 243 244 248 253 257 259 261 262 264 267 268 270 273 275 275 273 271 271 270 269 270 271 270 268 266 263 262 263 265
240 237 233 232 230 225 224 224 226 226 223 221 222 228 230 225 224 231 244 253 261 268 269 263 263 262 251 237 231 231 237 240 237 234 233 232 230 231 236 240 238 233 227 222 221 227 237 241 242 241 240 241 246 249 249 249 248 249 251 254 258 260 262 263 264 267 269 271 272 272 273 273 273 273 272 272 272 272 272 271 270 269 268 267 268
235 230 224 223 223 221 220 223 226 227 227 226 223 223 223 225 229 233 242 253 262 272 274 267 264 263 260 253 236 228 235 239 232 229 232 231 231 235 238 235 232 231 229 228 232 237 241 243 246 247 249 251 253 255 256 256 255 255 255 256 259 261 264 266 267 267 267 269 270 271 272 273 273 273 273 272 271 271 271 271 271 271 271 271 271
233 227 225 226 228 232 235 236 235 235 235 233 230 228 226 229 234 240 250 263 270 273 274 273 270 266 266 263 247 239 247 252 244 235 236 239 241 244 240 231 231 236 238 238 239 239 239 241 247 250 254 256 257 258 259 260 260 260 260 261 262 264 266 268 269 270 270 270 271 272 272 272 272 272 271 270 270 270 270 270 270 271 272 271 271
237 229 225 224 227 236 242 246 244 242 241 238 235 233 232 234 238 242 250 262 271 274 275 276 275 270 268 264 253 251 258 263 259 250 244 246 251 253 249 243 242 244 245 243 239 237 238 243 248 252 255 258 259 260 260 262 262 262 263 264 265 267 268 269 270 271 271 271 271 271 272 271 271 271 270 269 269 269 268 269 270 271 272 271 270
235 230 226 223 225 232 237 242 242 241 242 242 241 239 237 236 238 242 247 254 262 268 271 275 277 274 271 267 256 253 257 259 260 256 251 252 255 254 254 255 253 251 249 245 240 240 244 249 253 256 259 260 261 262 263 264 265 265 267 268 269 270 271 271 272 272 272 272 271 271 271 272 272 272 272 271 270 269 269 269 270 271 272 272 270
224 228 230 231 234 238 239 240 241 242 243 244 246 247 245 242 241 241 242 247 254 259 263 267 269 270 270 269 259 247 246 249 253 254 254 254 253 250 249 252 251 250 248 246 246 250 255 257 258 260 261 261 263 264 265 266 267 268 269 271 272 272 272 272 273 273 274 274 274 273 273 273 274 274 274 274 272 271 270 270 271 271 271 271 270
225 230 232 233 240 245 244 241 240 243 244 246 247 248 250 249 248 248 247 247 249 253 256 258 259 261 263 263 257 245 242 245 248 250 251 251 249 248 251 250 244 244 246 248 250 254 259 261 260 259 259 261 263 264 266 267 269 270 271 272 272 272 273 273 274 275 276 277 277 277 277 276 275 275 275 275 274 272 271 271 271 271 271 270 269
232 235 233 231 239 247 246 239 235 236 238 241 242 242 245 247 249 252 254 252 251 253 254 254 253 253 255 256 252 244 241 243 246 247 248 249 248 249 253 248 239 238 244 249 251 255 261 264 263 262 262 262 263 264 266 268 269 271 271 271 272 272 272 273 274 275 276 278 279 279 279 278 276 275 275 274 274 273 272 271 270 270 269 268 267
240 241 236 231 238 247 249 242 233 229 228 232 236 236 236 236 235 238 245 250 254 256 258 258 256 254 254 253 249 244 243 243 242 243 246 247 248 249 248 245 240 239 242 246 250 253 256 259 261 263 264 264 265 265 266 268 269 269 270 270 270 270 270 270 272 273 274 276 277 279 280 280 279 279 278 278 277 277 276 275 273 271 270 269 268
237 240 235 231 237 245 250 250 242 235 231 234 238 237 235 235 232 228 230 236 244 252 258 262 261 260 259 255 252 246 244 246 243 240 242 241 241 242 239 238 238 238 240 244 248 249 250 254 259 261 262 262 264 264 265 266 266 267 268 268 269 269 270 272 274 276 277 278 280 281 283 284 285 285 286 286 286 286 285 283 282 279 277 275 273
231 235 232 231 237 244 252 254 249 243 235 235 239 239 238 241 240 235 229 228 232 237 245 252 255 259 260 258 257 248 242 249 248 241 242 240 237 236 234 233 234 236 239 243 245 247 248 249 252 254 257 258 259 260 260 261 261 262 263 265 267 269 272 275 277 279 280 282 284 286 289 290 291 292 293 294 295 294 293 291 289 288 286 283 280
228 233 231 232 240 249 256 256 252 246 235 233 237 236 235 238 242 241 237 233 232 230 232 237 241 247 251 253 256 250 245 249 247 241 244 243 237 234 232 230 232 235 239 242 244 246 246 246 247 248 250 254 256 256 255 254 254 256 258 260 262 265 268 271 273 276 278 281 284 288 291 293 294 295 296 295 296 295 294 292 290 288 286 285 283
229 235 234 234 243 254 259 259 256 252 242 235 235 232 228 228 232 237 238 236 236 234 233 234 235 239 243 245 247 248 247 246 242 239 242 241 236 233 230 230 233 236 239 243 245 247 247 246 246 247 247 248 250 249 250 250 251 253 254 256 258 261 264 267 270 273 276 279 282 286 289 291 293 294 294 295 295 294 293 292 291 289 287 285 284
235 238 236 237 246 255 260 263 262 259 253 244 239 236 229 221 223 231 237 241 241 241 240 241 242 242 243 244 244 245 244 242 239 237 236 234 233 232 231 234 236 236 237 239 243 246 247 246 246 247 247 247 247 247 250 253 255 257 258 259 261 263 265 268 270 271 272 275 278 280 284 286 288 289 290 291 291 291 291 291 291 291 290 289 288
239 238 236 237 247 257 263 266 268 266 263 259 255 250 240 228 227 233 240 247 249 249 248 247 247 246 245 244 243 241 239 237 234 232 231 230 228 227 230 234 237 238 238 239 240 242 245 247 248 249 251 252 253 253 255 258 261 264 265 266 267 269 270 271 270 269 270 271 272 273 276 278 280 282 283 284 284 284 285 285 286 287 287 288 288
238 236 233 234 243 255 263 269 273 273 273 271 267 263 254 241 236 238 244 249 252 253 252 249 246 242 239 238 235 232 230 228 227 226 226 228 228 229 233 237 241 243 244 244 244 245 248 251 252 253 256 259 262 263 264 266 269 271 272 272 274 275 274 273 272 271 271 270 271 272 273 274 276 277 278 279 279 280 281 282 284 284 285 285 286
236 233 232 233 239 249 259 268 275 277 277 275 273 273 269 259 250 248 248 249 251 252 251 250 246 242 238 235 232 228 226 226 225 226 228 231 233 233 235 239 242 244 246 248 250 252 253 254 254 256 258 262 266 269 272 275 277 277 276 278 280 279 277 275 274 273 271 271 271 272 274 275 276 276 277 277 277 278 279 282 283 284 284 284 284
233 230 232 236 241 246 254 265 272 276 277 276 276 277 277 273 266 260 255 252 252 252 251 250 249 248 246 244 241 238 236 236 236 236 237 236 236 235 235 238 241 242 245 248 250 252 255 257 259 260 261 262 266 271 275 278 279 279 278 280 280 279 277 276 273 272 271 271 271 272 273 274 276 277 279 281 281 282 284 287 290 292 293 293 292
232 234 241 246 248 248 252 260 268 272 275 275 274 274 276 278 275 270 264 259 256 254 251 250 251 252 253 251 249 245 243 243 243 244 244 241 241 242 242 242 244 245 247 248 250 252 254 256 260 263 265 266 269 272 274 275 275 276 277 279 280 280 280 278 276 274 272 272 273 273 274 276 279 283 286 286 287 287 289 292 296 298 300 301 301
241 248 252 252 250 248 248 255 263 268 271 271 268 266 269 271 269 267 265 261 257 255 251 251 251 251 251 250 248 245 244 245 244 244 247 249 251 252 251 251 251 252 251 251 251 252 253 254 256 259 262 265 268 270 271 271 271 273 276 278 280 281 281 280 280 279 278 278 278 279 280 283 287 291 293 293 292 291 291 293 296 298 299 299 300
248 253 256 256 251 247 247 251 258 264 266 265 262 259 259 259 258 257 255 252 250 250 252 253 253 253 254 253 251 249 251 254 257 261 264 268 269 265 262 262 262 263 264 262 261 259 259 259 258 259 260 261 264 267 270 271 272 272 273 276 277 278 279 280 280 281 282 282 282 283 284 286 289 291 292 292 292 291 291 292 293 294 296 296 297
251 252 254 255 252 249 248 250 256 260 261 260 258 255 251 249 249 249 249 248 248 251 254 257 261 264 266 269 271 272 274 278 283 288 289 289 288 285 283 281 279 278 277 275 272 269 267 265 265 264 264 264 264 266 268 269 270 270 271 272 274 275 276 277 278 278 278 278 279 279 280 282 284 285 286 286 287 288 288 289 291 292 294 295 296
250 251 250 250 249 249 249 252 256 258 259 259 256 253 250 250 252 253 254 255 256 259 263 268 273 276 277 281 285 287 288 289 291 294 295 294 294 294 294 295 294 291 288 285 282 278 275 273 272 271 271 271 271 272 272 271 272 273 275 275 275 275 275 275 275 275 276 276 277 278 279 281 281 281 282 283 284 285 287 288 290 291 293 294 295
246 245 244 244 246 248 250 252 254 254 255 255 254 254 254 255 256 258 258 261 264 267 272 278 283 286 287 289 291 291 291 291 291 290 289 289 290 291 292 295 296 295 293 290 286 282 279 277 275 274 273 273 273 273 272 272 273 274 275 275 275 275 274 274 275 275 276 277 277 277 278 279 280 281 283 284 286 287 289 290 291 293 294 295 296
241 240 242 244 246 249 251 251 252 253 253 253 253 254 254 254 255 256 259 263 267 272 277 282 287 291 292 292 291 290 290 290 291 291 291 290 288 286 286 288 291 294 295 293 289 285 281 279 277 275 274 273 271 268 267 267 268 269 269 270 271 272 273 273 274 275 276 278 279 279 279 280 281 282 284 286 288 289 290 292 293 294 295 296 297
242 240 242 245 247 249 251 253 254 254 254 254 254 253 253 253 253 255 258 262 266 271 277 283 290 294 295 292 290 289 291 293 295 295 295 295 292 289 287 287 289 291 293 293 292 290 287 285 282 280 278 277 274 270 269 270 271 271 271 270 271 272 274 274 275 276 277 278 279 280 281 281 282 283 284 286 287 288 290 291 292 294 295 296 296
248 245 242 243 247 249 252 254 254 255 255 254 254 254 253 254 254 254 256 259 264 270 276 282 288 291 290 289 288 291 294 296 296 295 294 293 292 291 291 291 291 291 291 292 291 290 289 287 286 284 283 281 279 277 276 276 277 277 276 274 274 273 273 273 273 275 276 278 278 278 280 281 281 283 285 286 287 288 289 290 292 294 294 294 294
254 251 248 246 247 249 251 253 254 255 255 255 256 256 256 257 257 257 259 261 264 268 273 277 280 282 282 283 286 289 291 293 293 293 291 290 290 291 292 291 290 290 291 292 290 288 286 286 286 286 285 284 283 281 279 278 278 277 277 276 275 274 272 271 271 273 274 276 277 277 278 279 281 282 284 286 287 288 289 291 293 294 294 294 293
249 246 250 250 249 250 250 252 254 254 255 255 255 257 258 259 259 260 261 262 263 265 268 271 274 276 279 281 284 287 288 289 289 288 288 288 289 289 290 289 287 287 289 291 289 286 284 284 286 287 288 286 284 282 280 278 276 276 276 276 274 271 271 270 270 272 273 274 275 276 278 279 281 283 284 286 287 289 291 292 293 293 293 292 291
243 243 250 249 248 250 251 252 253 254 255 256 257 258 260 261 261 261 261 261 261 263 265 268 271 275 278 281 284 286 287 287 285 284 285 287 287 288 288 287 285 286 288 289 288 286 284 284 286 288 289 288 285 283 281 279 277 275 275 274 271 268 268 271 273 275 275 276 276 277 279 281 283 284 285 287 289 290 292 292 292 291 290 289 289
253 255 257 253 251 251 252 254 255 256 257 258 259 260 261 262 261 261 261 261 260 261 264 266 270 274 278 283 286 287 287 285 283 282 283 284 285 286 285 284 283 285 286 286 285 284 284 285 286 287 288 287 285 283 280 279 278 277 274 270 268 268 271 275 277 277 278 278 279 279 281 283 285 286 288 289 290 291 291 290 289 289 288 288 288
261 262 261 260 258 255 255 257 258 259 260 260 261 262 262 262 262 262 261 260 260 260 262 264 267 272 278 283 286 285 283 282 281 282 283 284 285 284 282 281 283 285 286 284 282 281 281 282 283 283 284 284 282 280 278 277 277 277 276 273 271 272 273 275 276 278 280 281 282 283 285 286 287 288 289 290 290 289 289 288 287 287 287 287 288
260 259 259 259 259 257 257 258 259 260 262 263 264 264 263 263 263 263 262 261 259 259 260 261 263 269 276 281 283 281 278 278 279 281 283 286 286 283 281 282 285 285 283 282 280 279 280 282 281 279 279 278 277 277 277 276 275 276 276 276 275 274 274 276 279 282 284 284 285 286 287 287 288 289 290 290 290 290 290 290 290 289 289 290 290
260 259 258 257 256 256 255 255 256 257 258 260 262 263 263 262 262 262 263 262 260 260 260 259 261 266 273 278 280 280 278 276 278 281 284 286 284 282 282 285 285 284 282 280 277 277 279 279 277 275 275 275 276 278 278 275 274 273 273 273 272 273 276 281 284 285 284 285 285 286 287 288 290 291 292 293 293 293 294 294 294 294 294 294 294
262 261 260 260 259 259 258 257 257 256 256 258 259 260 261 261 261 261 262 262 263 263 262 260 261 267 274 278 279 279 277 276 277 279 281 283 283 284 285 286 285 282 280 277 276 275 274 271 270 272 274 275 275 277 276 273 272 271 270 270 271 274 279 284 285 283 283 284 285 287 289 291 293 294 294 294 295 296 297 297 297 297 296 296 296
Height
5807 5807 5806 5806 5806 5806 5806 5806 5806 5806 5806 5806 5806 5805 5805 5805 5805 5805 5805 5806 5807 5807 5807 5807 5808 5808 5809 5809 5809 5810 5811 5813 5814 5814 5815 5816 5817 5817 5818 5819 5820 5820 5821 5822 5823 5824 5824 5825 5825 5826 5826 5826 5826 5827 5827 5827 5827 5827 5827 5827 5827 5827 5827 5827 5827 5827 5827 5827 5827 5827 5827 5827 5828 5828 5829 5829 5829 5830 5830 5830 5830 5830 5831 5831 5831
5806 5806 5805 5805 5805 5805 5805 5805 5804 5804 5804 5804 5803 5803 5803 5803 5803 5803 5804 5805 5805 5805 5805 5805 5806 5807 5806 5806 5807 5808 5810 5812 5812 5812 5813 5814 5816 5816 5816 5817 5817 5818 5819 5819 5820 5821 5822 5822 5823 5823 5824 5824 5824 5825 5825 5825 5825 5826 5826 5826 5826 5826 5826 5826 5826 5826 5826 5826 5826 5826 5826 5826 5826 5826 5826 5827 5827 5828 5828 5828 5828 5829 5829 5829 5830
5805 5805 5805 5804 5804 5804 5804 5804 5804 5803 5803 5802 5802 5802 5802 5802 5802 5802 5803 5803 5803 5804 5804 5804 5804 5805 5804 5804 5806 5808 5809 5810 5810 5811 5812 5813 5814 5815 5815 5816 5816 5817 5817 5817 5818 5819 5819 5820 5820 5821 5821 5822 5822 5822 5823 5823 5824 5824 5824 5824 5824 5824 5824 5824 5824 5824 5824 5824 5824 5824 5824 5824 5824 5824 5824 5825 5825 5825 5826 5826 5827 5827 5827 5828 5828
5805 5805 5804 5804 5804 5804 5804 5804 5803 5803 5802 5802 5801 5801 5801 5801 5801 5802 5802 5802 5801 5802 5802 5802 5802 5802 5802 5803 5805 5806 5807 5807 5808 5809 5810 5811 5812 5813 5813 5814 5814 5815 5815 5815 5816 5817 5817 5818 5818 5819 5819 5819 5820 5820 5821 5821 5821 5822 5822 5823 5822 5822 5822 5822 5822 5822 5822 5822 5822 5822 5822 5823 5823 5823 5822 5822 5823 5823 5823 5824 5824 5825 5825 5826 5826
5805 5805 5804 5804 5804 5804 5804 5803 5803 5803 5802 5802 5801 5800 5800 5800 5801 5801 5801 5801 5800 5800 5801 5801 5800 5800 5801 5802 5803 5804 5805 5806 5807 5807 5808 5809 5809 5810 5811 5812 5812 5812 5813 5813 5814 5814 5815 5816 5817 5817 5817 5818 5818 5818 5819 5819 5819 5820 5820 5820 5820 5820 5820 5820 5820 5820 5820 5820 5820 5820 5821 5821 5821 5821 5821 5821 5821 5821 5821 5822 5822 5822 5823 5823 5824
5804 5804 5804 5804 5804 5804 5804 5803 5803 5803 5802 5802 5801 5800 5800 5800 5801 5801 5801 5800 5799 5799 5799 5799 5798 5799 5800 5801 5802 5803 5803 5804 5805 5805 5806 5807 5808 5808 5809 5810 5810 5810 5810 5811 5812 5812 5813 5814 5815 5815 5816 5816 5816 5816 5817 5817 5817 5817 5818 5818 5818 5818 5818 5818 5817 5817 5817 5818 5818 5818 5818 5818 5819 5819 5819 5819 5819 5819 5819 5820 5820 5820 5821 5821 5821
5804 5804 5804 5804 5804 5804 5804 5803 5803 5802 5802 5801 5800 5800 5800 5800 5800 5800 5800 5799 5798 5798 5797 5797 5797 5797 5799 5800 5800 5801 5802 5803 5804 5805 5805 5806 5807 5807 5808 5808 5809 5809 5809 5809 5810 5811 5811 5812 5813 5813 5814 5814 5814 5814 5814 5815 5815 5815 5815 5816 5816 5816 5816 5815 5815 5815 5815 5815 5815 5815 5816 5816 5816 5816 5816 5817 5817 5817 5817 5818 5818 5818 5818 5818 5819
5803 5804 5804 5804 5804 5804 5803 5803 5802 5801 5801 5800 5800 5800 5800 5800 5800 5799 5799 5798 5798 5798 5796 5796 5796 5796 5797 5799 5799 5800 5802 5803 5804 5804 5805 5805 5806 5806 5807 5807 5807 5807 5807 5808 5808 5809 5810 5810 5811 5811 5812 5812 5812 5812 5813 5813 5813 5813 5813 5813 5814 5814 5814 5813 5813 5813 5813 5813 5813 5813 5813 5813 5813 5814 5814 5814 5814 5815 5815 5815 5815 5816 5816 5816 5816
5803 5803 5803 5804 5804 5803 5803 5802 5802 5801 5800 5800 5799 5799 5800 5800 5800 5799 5798 5798 5798 5797 5796 5795 5796 5796 5797 5797 5798 5799 5801 5802 5803 5803 5804 5804 5805 5805 5805 5806 5807 5807 5806 5806 5807 5807 5808 5808 5809 5810 5810 5811 5811 5811 5811 5811 5811 5811 5811 5811 5811 5811 5811 5811 5811 5811 5810 5810 5810 5810 5810 5810 5811 5811 5811 5811 5812 5812 5812 5812 5813 5813 5813 5813 5813
5802 5802 5803 5803 5803 5802 5802 5802 5801 5800 5800 5799 5799 5799 5799 5799 5799 5798 5797 5797 5798 5797 5796 5795 5796 5796 5796 5796 5797 5798 5800 5801 5801 5802 5802 5803 5803 5804 5804 5805 5805 5805 5805 5805 5805 5806 5806 5807 5807 5808 5809 5809 5809 5809 5809 5809 5809 5809 5808 5807 5808 5808 5809 5809 5809 5808 5808 5807 5807 5807 5807 5808 5808 5808 5808 5809 5809 5809 5809 5810 5810 5810 5810 5810 5811
5801 5801 5801 5801 5802 5801 5801 5801 5800 5800 5799 5798 5798 5798 5798 5799 5798 5797 5796 5796 5797 5797 5796 5796 5796 5795 5796 5796 5797 5798 5799 5800 5800 5801 5802 5802 5802 5803 5804 5804 5804 5804 5804 5804 5804 5804 5804 5805 5805 5806 5807 5807 5807 5807 5807 5807 5806 5806 5806 5805 5806 5806 5807 5807 5806 5806 5806 5805 5805 5805 5805 5805 5805 5805 5806 5806 5806 5807 5807 5807 5807 5808 5808 5808 5808
5800 5800 5800 5800 5800 5800 5800 5800 5799 5799 5798 5798 5797 5797 5798 5798 5798 5797 5795 5795 5796 5796 5796 5796 5795 5795 5795 5796 5796 5797 5798 5799 5800 5800 5801 5801 5802 5802 5803 5803 5802 5803 5803 5803 5802 5803 5803 5803 5804 5804 5804 5805 5805 5805 5805 5805 5804 5804 5804 5804 5804 5805 5805 5805 5804 5804 5804 5803 5803 5803 5803 5803 5803 5803 5803 5803 5804 5804 5804 5805 5805 5805 5805 5806 5806
5798 5798 5798 5798 5798 5799 5799 5798 5798 5798 5798 5797 5797 5797 5797 5797 5797 5796 5795 5794 5794 5795 5795 5795 5795 5795 5796 5796 5796 5797 5798 5798 5799 5799 5800 5801 5801 5801 5801 5802 5802 5802 5802 5802 5802 5801 5802 5802 5802 5802 5802 5803 5803 5803 5803 5803 5803 5803 5802 5803 5803 5804 5804 5803 5803 5802 5802 5802 5801 5801 5800 5800 5801 5800 5801 5801 5801 5802 5802 5802 5802 5802 5803 5803 5803
5796 5797 5797 5797 5797 5797 5797 5797 5797 5797 5797 5796 5796 5796 5796 5796 5796 5795 5794 5793 5792 5793 5794 5795 5795 5795 5796 5796 5796 5796 5797 5798 5799 5799 5799 5800 5800 5800 5801 5801 5801 5801 5801 5801 5801 5801 5801 5801 5801 5801 5801 5802 5802 5802 5802 5802 5802 5801 5801 5802 5802 5802 5802 5802 5801 5801 5801 5800 5800 5799 5799 5798 5798 5798 5798 5798 5798 5799 5799 5799 5799 5799 5799 5800 5800
5795 5795 5795 5795 5795 5796 5796 5796 5796 5796 5795 5795 5795 5795 5795 5795 5795 5794 5793 5792 5791 5791 5792 5793 5794 5794 5795 5795 5795 5795 5796 5797 5799 5799 5798 5798 5799 5800 5800 5800 5800 5800 5800 5801 5800 5800 5800 5799 5799 5800 5801 5801 5801 5801 5801 5801 5800 5800 5800 5800 5801 5801 5801 5801 5800 5800 5800 5799 5798 5798 5797 5797 5797 5796 5796 5796 5796 5796 5796 5796 5796 5796 5796 5797 5797
5794 5794 5794 5794 5794 5794 5795 5795 5795 5795 5795 5794 5794 5794 5794 5794 5793 5793 5792 5791 5790 5790 5791 5792 5792 5793 5794 5794 5794 5794 5795 5796 5797 5797 5797 5797 5798 5799 5799 5799 5799 5799 5799 5799 5799 5799 5798 5798 5798 5799 5800 5800 5799 5799 5799 5799 5799 5799 5799 5799 5799 5799 5799 5799 5799 5799 5798 5798 5797 5796 5796 5795 5795 5795 5794 5794 5794 5794 5794 5793 5793 5793 5793 5794 5794
5792 5792 5792 5792 5793 5793 5793 5794 5794 5794 5794 5794 5793 5793 5793 5793 5792 5791 5790 5789 5789 5789 5790 5791 5791 5792 5792 5794 5794 5794 5794 5795 5796 5796 5796 5797 5798 5799 5799 5799 5799 5798 5798 5798 5798 5798 5797 5797 5798 5798 5798 5798 5798 5798 5798 5798 5798 5798 5798 5798 5798 5798 5797 5797 5797 5797 5797 5796 5796 5795 5794 5794 5794 5793 5793 5792 5792 5792 5792 5791 5790 5790 5791 5791 5791
5790 5790 5791 5791 5791 5792 5792 5792 5792 5793 5793 5792 5792 5792 5792 5791 5791 5790 5789 5788 5788 5788 5788 5790 5791 5791 5791 5792 5793 5793 5794 5795 5795 5795 5796 5797 5797 5798 5798 5799 5798 5798 5798 5798 5798 5798 5797 5797 5797 5797 5797 5797 5797 5797 5797 5797 5797 5797 5796 5796 5796 5796 5795 5795 5795 5795 5795 5794 5794 5793 5793 5792 5792 5792 5791 5791 5790 5790 5790 5789 5788 5788 5788 5789 5789
5789 5789 5789 5789 5790 5790 5790 5791 5791 5791 5791 5791 5791 5791 5790 5790 5789 5789 5788 5787 5787 5787 5787 5788 5789 5790 5790 5791 5791 5792 5792 5793 5793 5794 5794 5795 5796 5796 5796 5797 5798 5797 5797 5797 5797 5797 5797 5796 5796 5796 5796 5796 5796 5796 5796 5795 5795 5795 5795 5794 5794 5794 5793 5793 5792 5792 5792 5792 5791 5791 5791 5790 5790 5789 5789 5788 5788 5788 5788 5787 5786 5786 5786 5786 5786
5787 5787 5788 5788 5789 5789 5789 5789 5790 5790 5790 5790 5789 5789 5788 5788 5787 5787 5787 5786 5786 5786 5786 5786 5787 5788 5788 5789 5789 5790 5790 5790 5791 5791 5792 5793 5793 5793 5794 5795 5796 5796 5796 5796 5796 5796 5796 5796 5795 5795 5794 5794 5794 5794 5794 5794 5793 5793 5793 5792 5792 5791 5791 5790 5790 5789 5789 5789 5789 5788 5788 5788 5787 5787 5787 5786 5786 5786 5785 5785 5784 5784 5783 5783 5783
5786 5786 5786 5787 5787 5788 5788 5788 5788 5789 5788 5788 5787 5787 5786 5786 5785 5785 5786 5785 5785 5784 5784 5785 5785 5785 5786 5787 5787 5788 5788 5788 5789 5790 5790 5791 5791 5792 5792 5793 5794 5794 5794 5794 5794 5794 5795 5794 5794 5793 5793 5792 5792 5792 5792 5792 5792 5791 5791 5790 5790 5789 5789 5788 5787 5787 5787 5786 5786 5785 5785 5785 5784 5784 5784 5784 5783 5783 5782 5782 5781 5781 5781 5781 5780
5786 5785 5785 5785 5785 5786 5786 5786 5786 5786 5786 5786 5785 5785 5784 5784 5783 5783 5784 5784 5783 5783 5783 5783 5783 5783 5783 5784 5785 5786 5786 5786 5787 5788 5789 5789 5789 5790 5791 5792 5792 5792 5792 5791 5792 5792 5792 5792 5792 5792 5791 5791 5791 5790 5790 5790 5789 5789 5788 5788 5787 5787 5786 5786 5785 5785 5784 5784 5783 5783 5782 5782 5781 5781 5781 5781 5780 5780 5780 5779 5779 5778 5778 5778 5778
5785 5784 5784 5783 5783 5783 5784 5784 5784 5784 5783 5783 5783 5783 5782 5781 5781 5781 5782 5782 5782 5782 5781 5781 5781 5781 5781 5782 5783 5784 5784 5785 5785 5786 5787 5787 5787 5788 5789 5790 5790 5790 5790 5790 5790 5790 5790 5790 5790 5790 5789 5789 5789 5788 5788 5788 5787 5787 5786 5786 5785 5784 5784 5783 5783 5782 5782 5782 5781 5780 5780 5779 5779 5779 5778 5778 5777 5777 5777 5777 5776 5776 5776 5775 5775
5784 5783 5782 5782 5782 5781 5781 5782 5781 5781 5781 5781 5781 5781 5781 5780 5779 5779 5779 5780 5781 5780 5780 5780 5780 5780 5779 5780 5781 5782 5782 5783 5783 5784 5784 5785 5785 5786 5787 5788 5788 5788 5788 5788 5787 5788 5788 5788 5787 5787 5787 5787 5787 5787 5786 5785 5785 5784 5784 5783 5783 5782 5782 5781 5781 5780 5780 5779 5779 5778 5778 5777 5777 5776 5776 5775 5775 5775 5774 5774 5774 5773 5773 5773 5773
5782 5782 5781 5781 5781 5781 5780 5780 5780 5779 5779 5779 5779 5780 5780 5779 5778 5777 5778 5778 5779 5779 5779 5779 5779 5778 5778 5778 5779 5780 5780 5780 5781 5782 5782 5783 5783 5784 5785 5786 5786 5785 5785 5785 5785 5785 5785 5785 5785 5785 5785 5785 5785 5784 5784 5783 5783 5782 5782 5781 5781 5780 5780 5779 5779 5778 5778 5777 5777 5776 5776 5775 5775 5774 5774 5773 5773 5772 5772 5772 5771 5771 5771 5771 5771
5780 5780 5780 5780 5780 5780 5779 5779 5778 5778 5778 5778 5778 5778 5778 5778 5777 5777 5777 5777 5777 5778 5778 5778 5778 5777 5777 5776 5777 5778 5778 5778 5779 5780 5780 5781 5781 5782 5783 5783 5783 5783 5783 5783 5782 5783 5783 5783 5783 5783 5783 5783 5782 5782 5781 5781 5780 5780 5780 5779 5779 5778 5778 5777 5777 5776 5776 5776 5775 5775 5774 5773 5773 5772 5772 5771 5771 5770 5770 5770 5769 5769 5769 5769 5769
5777 5777 5778 5778 5778 5778 5778 5777 5777 5777 5777 5777 5777 5778 5778 5777 5777 5777 5777 5776 5776 5776 5777 5777 5777 5777 5776 5776 5776 5777 5777 5777 5778 5778 5779 5779 5780 5781 5781 5781 5780 5780 5780 5781 5781 5781 5781 5781 5781 5781 5781 5780 5780 5780 5779 5779 5778 5778 5778 5777 5777 5776 5776 5776 5775 5775 5774 5774 5773 5773 5772 5772 5771 5771 5770 5770 5769 5769 5768 5768 5768 5768 5767 5767 5767
5775 5775 5775 5776 5776 5776 5776 5776 5776 5776 5776 5776 5776 5776 5777 5777 5776 5776 5776 5776 5776 5776 5776 5776 5776 5776 5776 5775 5775 5776 5776 5776 5777 5777 5777 5778 5779 5779 5779 5778 5778 5778 5778 5779 5779 5779 5780 5780 5779 5779 5779 5778 5778 5778 5777 5777 5776 5776 5776 5775 5775 5775 5774 5774 5774 5773 5773 5772 5772 5771 5771 5770 5770 5769 5769 5768 5768 5767 5767 5767 5766 5766 5766 5766 5765
5773 5773 5773 5773 5774 5774 5775 5774 5774 5774 5774 5774 5774 5775 5775 5775 5775 5775 5776 5775 5775 5775 5775 5775 5775 5775 5775 5775 5775 5775 5775 5775 5775 5776 5776 5776 5777 5777 5776 5776 5776 5776 5777 5777 5777 5777 5777 5777 5777 5777 5777 5776 5776 5776 5775 5775 5774 5774 5774 5774 5773 5773 5773 5772 5772 5772 5771 5771 5770 5770 5769 5769 5768 5768 5768 5767 5767 5766 5766 5765 5765 5765 5764 5764 5764
5770 5771 5771 5771 5772 5772 5773 5773 5773 5772 5772 5772 5772 5772 5773 5773 5773 5774 5774 5774 5774 5774 5774 5774 5774 5774 5774 5774 5773 5774 5774 5774 5774 5774 5774 5774 5775 5775 5775 5774 5775 5775 5776 5775 5775 5775 5775 5775 5775 5774 5774 5774 5774 5774 5773 5773 5773 5772 5772 5772 5772 5771 5771 5771 5771 5770 5770 5769 5769 5769 5768 5767 5767 5766 5766 5766 5765 5765 5764 5764 5763 5763 5763 5762 5762
5768 5768 5768 5769 5770 5770 5771 5771 5771 5771 5771 5770 5770 5770 5770 5770 5771 5771 5772 5773 5773 5773 5773 5773 5773 5773 5773 5773 5773 5773 5774 5774 5774 5773 5773 5773 5773 5773 5773 5773 5773 5774 5774 5774 5774 5774 5773 5773 5773 5772 5772 5772 5772 5772 5772 5772 5771 5771 5770 5770 5770 5770 5769 5769 5769 5768 5768 5767 5767 5767 5766 5766 5765 5764 5764 5764 5763 5763 5762 5762 5762 5761 5761 5760 5760
5765 5765 5766 5766 5767 5768 5769 5769 5770 5770 5769 5769 5769 5768 5768 5768 5769 5770 5770 5771 5772 5772 5772 5772 5773 5773 5773 5772 5773 5773 5773 5773 5773 5773 5772 5772 5772 5772 5772 5772 5772 5772 5772 5772 5772 5772 5772 5771 5771 5771 5771 5770 5770 5770 5770 5770 5770 5769 5769 5768 5768 5768 5768 5767 5767 5766 5766 5765 5765 5764 5764 5763 5763 5762 5762 5761 5761 5760 5760 5759 5759 5759 5759 5758 5758
5761 5762 5763 5764 5765 5766 5766 5767 5768 5768 5768 5768 5767 5767 5767 5767 5767 5768 5768 5769 5770 5771 5771 5771 5771 5771 5772 5772 5772 5772 5772 5772 5772 5772 5771 5771 5772 5772 5772 5772 5771 5771 5770 5770 5770 5770 5770 5770 5769 5769 5769 5769 5768 5768 5768 5767 5767 5767 5766 5766 5766 5766 5765 5765 5764 5764 5763 5763 5762 5762 5761 5761 5760 5760 5759 5759 5758 5758 5757 5757 5757 5756 5756 5756 5755
5758 5759 5760 5761 5762 5763 5764 5765 5765 5766 5766 5766 5765 5765 5765 5765 5765 5766 5766 5767 5768 5769 5769 5770 5770 5770 5770 5770 5770 5770 5770 5770 5770 5770 5770 5770 5770 5770 5770 5770 5770 5769 5769 5769 5768 5768 5768 5767 5767 5766 5767 5767 5767 5766 5766 5765 5765 5764 5764 5764 5764 5763 5763 5762 5762 5761 5761 5760 5760 5759 5759 5758 5758 5757 5757 5756 5756 5755 5755 5754 5754 5753 5753 5753 5752
5756 5757 5758 5758 5759 5760 5761 5762 5763 5763 5763 5763 5763 5763 5763 5763 5764 5764 5764 5765 5765 5766 5767 5767 5768 5768 5768 5768 5768 5768 5768 5768 5768 5768 5768 5768 5768 5768 5768 5768 5768 5767 5767 5767 5767 5766 5766 5765 5765 5764 5764 5764 5764 5764 5764 5763 5763 5762 5762 5762 5761 5761 5760 5759 5759 5759 5758 5758 5757 5757 5756 5756 5755 5755 5754 5754 5753 5753 5752 5752 5751 5750 5750 5749 5748
5755 5755 5755 5756 5756 5757 5758 5759 5760 5761 5761 5761 5761 5761 5761 5761 5762 5762 5762 5763 5763 5764 5764 5765 5765 5766 5765 5765 5765 5765 5766 5766 5766 5766 5766 5766 5766 5766 5766 5765 5765 5765 5765 5764 5764 5764 5764 5763 5763 5763 5763 5762 5762 5761 5761 5761 5760 5760 5759 5759 5759 5758 5757 5757 5756 5756 5755 5754 5754 5753 5753 5752 5752 5751 5751 5750 5750 5749 5749 5749 5748 5747 5747 5746 5745
5752 5752 5753 5753 5754 5754 5755 5756 5757 5758 5758 5758 5759 5759 5759 5759 5760 5760 5761 5761 5761 5762 5762 5763 5763 5763 5763 5763 5763 5763 5764 5764 5764 5764 5764 5764 5764 5764 5763 5763 5763 5762 5762 5761 5761 5761 5761 5760 5760 5760 5760 5760 5759 5759 5758 5758 5757 5757 5757 5756 5756 5755 5755 5754 5753 5753 5752 5752 5751 5750 5750 5749 5749 5748 5747 5746 5746 5746 5745 5745 5744 5744 5743 5742 5741
5749 5749 5750 5750 5751 5752 5753 5753 5754 5755 5755 5756 5756 5756 5756 5757 5757 5758 5758 5759 5759 5760 5760 5760 5761 5761 5761 5761 5761 5761 5761 5761 5760 5761 5761 5761 5762 5762 5761 5761 5761 5760 5760 5759 5759 5758 5758 5757 5757 5757 5757 5756 5756 5756 5756 5755 5754 5753 5753 5753 5753 5752 5752 5751 5751 5750 5750 5749 5748 5748 5747 5746 5746 5745 5744 5743 5742 5742 5741 5740 5740 5739 5738 5737 5737
5746 5746 5747 5747 5748 5749 5750 5751 5751 5752 5753 5753 5754 5754 5754 5754 5755 5756 5756 5757 5757 5758 5758 5758 5758 5758 5759 5759 5759 5758 5758 5757 5757 5758 5758 5758 5758 5758 5758 5758 5757 5757 5757 5757 5757 5756 5755 5754 5754 5753 5753 5753 5752 5752 5752 5751 5750 5750 5750 5749 5749 5748 5748 5748 5748 5747 5747 5746 5745 5744 5744 5743 5742 5741 5740 5739 5739 5738 5737 5736 5735 5734 5733 5732 5732
5743 5743 5744 5744 5745 5746 5747 5748 5749 5749 5750 5750 5751 5751 5752 5752 5753 5753 5754 5754 5755 5755 5755 5755 5755 5755 5756 5756 5756 5755 5754 5754 5754 5754 5755 5755 5755 5755 5754 5754 5753 5753 5753 5754 5754 5754 5753 5752 5751 5750 5750 5749 5749 5749 5748 5747 5746 5746 5746 5746 5745 5745 5744 5744 5743 5743 5743 5742 5741 5741 5740 5738 5737 5737 5736 5735 5734 5733 5733 5732 5730 5729 5728 5727 5726
5740 5740 5741 5742 5743 5744 5744 5745 5746 5746 5747 5747 5747 5748 5749 5750 5750 5751 5751 5751 5752 5752 5752 5752 5752 5752 5752 5752 5751 5751 5751 5750 5750 5751 5751 5751 5751 5751 5751 5750 5749 5749 5748 5749 5750 5750 5750 5749 5748 5748 5747 5747 5747 5746 5745 5744 5743 5743 5743 5742 5742 5741 5740 5740 5739 5739 5738 5738 5737 5736 5735 5734 5733 5732 5731 5730 5729 5729 5728 5727 5726 5724 5722 5721 5720
5737 5738 5738 5739 5740 5741 5741 5742 5743 5743 5743 5744 5744 5745 5745 5746 5747 5747 5748 5748 5748 5749 5749 5749 5748 5748 5748 5748 5747 5747 5747 5747 5747 5747 5747 5748 5747 5747 5747 5747 5746 5745 5744 5744 5745 5745 5745 5745 5745 5745 5744 5744 5743 5743 5742 5741 5740 5740 5739 5738 5737 5737 5736 5735 5734 5734 5734 5733 5732 5730 5730 5729 5728 5727 5726 5725 5724 5724 5723 5722 5720 5719 5717 5715 5714
5735 5735 5736 5736 5737 5738 5738 5739 5739 5740 5740 5740 5741 5741 5742 5742 5743 5744 5744 5744 5745 5745 5745 5745 5745 5745 5745 5745 5744 5744 5744 5743 5743 5743 5743 5743 5743 5743 5742 5742 5742 5742 5742 5741 5741 5741 5741 5740 5740 5740 5740 5739 5739 5739 5738 5737 5736 5735 5735 5734 5733 5732 5731 5730 5730 5729 5729 5728 5726 5725 5725 5724 5722 5721 5721 5720 5719 5718 5717 5716 5715 5713 5711 5709 5708
5732 5733 5733 5734 5734 5735 5736 5736 5736 5736 5737 5737 5737 5738 5738 5739 5740 5740 5741 5741 5741 5742 5742 5742 5742 5742 5742 5742 5742 5741 5741 5741 5740 5739 5739 5739 5739 5738 5738 5738 5738 5738 5738 5738 5737 5737 5737 5736 5735 5735 5735 5734 5734 5734 5733 5732 5732 5731 5730 5729 5728 5727 5726 5725 5725 5724 5724 5722 5720 5720 5719 5719 5717 5716 5715 5714 5713 5712 5711 5710 5708 5706 5704 5702 5701
5730 5731 5731 5732 5732 5732 5733 5733 5733 5733 5733 5734 5734 5734 5735 5735 5736 5737 5737 5737 5738 5738 5739 5739 5739 5739 5739 5739 5739 5738 5738 5738 5737 5737 5736 5736 5735 5734 5734 5734 5733 5733 5733 5733 5732 5732 5732 5732 5731 5730 5729 5729 5728 5728 5727 5727 5727 5726 5725 5724 5723 5722 5721 5720 5720 5719 5719 5718 5716 5715 5714 5714 5713 5712 5710 5708 5707 5706 5705 5703 5701 5699 5697 5695 5694
5728 5729 5729 5729 5729 5730 5730 5730 5730 5730 5730 5730 5730 5731 5731 5731 5732 5732 5733 5733 5734 5734 5735 5735 5735 5735 5735 5735 5734 5734 5734 5734 5734 5733 5733 5732 5732 5731 5730 5730 5729 5729 5728 5727 5727 5726 5726 5727 5726 5725 5724 5723 5722 5721 5721 5720 5720 5720 5720 5719 5718 5717 5716 5715 5714 5714 5713 5712 5711 5710 5710 5709 5708 5706 5705 5702 5700 5699 5698 5696 5694 5692 5690 5688 5686
5725 5725 5725 5725 5726 5726 5726 5727 5726 5726 5726 5726 5726 5727 5727 5727 5727 5728 5728 5728 5729 5730 5730 5730 5730 5730 5729 5729 5729 5728 5728 5728 5728 5728 5728 5728 5727 5726 5726 5725 5725 5724 5724 5723 5722 5721 5721 5721 5720 5719 5718 5717 5716 5715 5714 5714 5714 5714 5714 5713 5712 5712 5710 5709 5708 5708 5708 5707 5706 5705 5704 5704 5702 5700 5698 5695 5693 5691 5690 5689 5687 5684 5682 5680 5678
5721 5721 5721 5721 5722 5722 5723 5723 5722 5722 5722 5722 5722 5722 5723 5723 5723 5724 5724 5724 5724 5725 5725 5725 5724 5724 5724 5724 5723 5722 5722 5722 5722 5723 5723 5724 5723 5721 5719 5720 5720 5719 5719 5718 5717 5716 5716 5715 5714 5713 5712 5711 5710 5709 5709 5708 5708 5708 5707 5707 5706 5705 5704 5703 5702 5702 5702 5701 5700 5699 5698 5697 5696 5693 5691 5689 5686 5684 5683 5681 5679 5677 5675 5672 5671
5716 5716 5717 5717 5717 5718 5718 5718 5718 5718 5717 5717 5717 5717 5718 5718 5719 5719 5719 5720 5720 5720 5720 5720 5719 5719 5719 5719 5718 5717 5716 5716 5716 5717 5718 5719 5719 5716 5713 5714 5714 5714 5713 5713 5711 5710 5710 5709 5707 5707 5706 5705 5704 5704 5704 5703 5702 5702 5701 5701 5700 5699 5698 5698 5697 5697 5696 5695 5694 5693 5692 5690 5689 5687 5685 5683 5680 5677 5675 5673 5671 5668 5666 5665 5663
5710 5711 5712 5712 5712 5713 5713 5713 5713 5713 5712 5712 5712 5711 5711 5711 5713 5713 5713 5714 5714 5714 5714 5714 5714 5714 5714 5714 5714 5713 5712 5711 5711 5710 5712 5713 5713 5710 5708 5708 5708 5707 5707 5706 5705 5704 5705 5703 5701 5700 5700 5699 5699 5699 5698 5697 5697 5696 5696 5695 5694 5693 5693 5693 5693 5691 5689 5688 5688 5687 5685 5684 5682 5681 5679 5677 5674 5670 5667 5665 5662 5659 5657 5656 5654
5705 5705 5706 5706 5706 5707 5707 5707 5707 5707 5707 5706 5705 5705 5704 5704 5705 5705 5706 5707 5708 5708 5708 5708 5708 5708 5709 5709 5710 5709 5708 5707 5706 5705 5705 5706 5706 5704 5703 5702 5701 5700 5700 5699 5697 5698 5699 5698 5696 5695 5694 5693 5693 5693 5692 5692 5691 5691 5690 5689 5689 5689 5689 5688 5687 5685 5683 5682 5682 5681 5679 5678 5676 5674 5672 5670 5667 5664 5660 5657 5654 5650 5648 5647 5645